Wind_Speed
15 16 17 17 17 18 18 18 17 16 15 14 13 12 11 11 11 10 10 10 10 11 12 13 14 15 15 16 16 15 14 14 13 12 11 11 10 9 9 9 9 10 10 10 10 10 10 10 10 11 11 11 12 12 12 12 12 11 11 11 10 10 10 10 9 9 8 8 8 8 10 9 8 8 9 9 9 9 9 10 10 10 11 7 3
16 17 18 18 18 18 17 16 14 13 12 11 11 10 9 10 10 10 10 10 10 10 11 12 13 14 15 15 15 15 14 13 13 12 11 11 10 10 10 10 10 10 10 10 10 10 10 11 11 11 12 12 13 13 13 14 14 14 13 13 13 12 11 11 11 10 9 9 9 9 10 9 8 8 7 7 9 9 8 9 10 10 10 10 4
16 17 17 17 16 16 15 13 12 11 10 9 8 8 8 9 9 8 8 8 9 9 10 11 12 12 12 13 12 12 12 13 13 11 10 11 11 10 11 11 10 9 9 9 9 10 11 11 11 12 12 13 14 14 15 15 15 15 15 14 14 13 12 12 12 12 11 10 10 10 10 10 9 9 7 7 7 9 9 10 12 11 7 11 12
15 15 15 14 13 13 12 11 10 9 8 7 7 7 8 7 7 6 6 6 7 8 9 10 10 10 10 11 11 10 10 11 12 11 11 11 10 10 11 10 10 9 9 9 9 10 10 11 11 12 13 14 14 15 15 15 15 15 15 15 14 14 13 13 12 12 12 11 11 11 11 11 10 9 10 9 8 8 10 11 13 13 9 8 12
13 13 13 12 10 9 8 8 8 8 8 8 8 8 7 5 5 5 5 6 7 7 9 9 9 9 9 9 10 10 9 10 10 10 10 10 9 9 10 10 10 10 10 10 10 10 10 10 11 12 13 14 15 15 15 15 16 15 15 15 15 14 13 13 13 12 12 11 11 11 12 13 12 12 12 12 11 9 9 11 12 13 11 8 9
10 10 10 9 7 6 6 7 7 7 8 8 8 6 5 5 5 5 6 7 7 7 8 8 9 9 9 9 9 10 10 10 9 9 9 9 8 8 9 10 10 10 11 11 10 10 10 10 11 12 13 14 15 15 15 15 15 15 15 15 14 14 13 13 12 12 11 11 11 12 12 13 13 13 13 14 13 12 11 11 11 12 10 7 9
8 8 8 7 6 5 5 6 6 7 7 7 6 5 4 4 4 4 5 5 6 6 6 7 8 8 9 9 9 10 10 10 9 7 7 7 7 7 8 9 10 10 11 10 10 10 10 11 11 12 12 14 14 15 15 15 15 15 15 16 15 15 14 13 12 12 11 11 11 11 12 13 13 13 14 14 15 14 13 12 12 13 10 7 9
7 7 7 6 6 5 5 6 7 6 6 5 4 3 2 2 3 4 4 4 4 4 4 5 6 7 8 9 9 10 10 9 7 6 6 6 6 6 6 7 8 9 10 10 10 9 10 10 10 11 12 13 14 14 15 15 16 16 17 17 17 16 15 14 13 13 12 12 11 11 12 13 13 13 14 14 14 14 15 14 12 11 10 10 12
8 8 7 6 6 6 5 6 6 6 5 4 4 3 2 2 2 3 4 4 4 4 4 5 5 6 8 9 9 9 8 7 5 5 4 5 5 5 5 6 7 8 9 9 9 9 9 9 10 10 12 13 14 15 15 16 17 18 18 18 18 18 16 15 14 13 13 13 12 12 11 12 12 13 13 15 15 14 15 16 15 11 10 11 11
9 8 7 6 6 6 5 5 5 5 4 4 5 4 2 1 2 3 4 4 4 4 4 5 5 6 7 8 9 8 6 4 4 3 3 3 4 4 5 6 7 7 8 9 9 9 9 9 9 10 11 13 14 15 16 17 18 18 19 19 19 18 17 15 14 13 13 13 13 12 11 11 12 12 13 15 16 17 17 18 18 15 13 12 10
9 8 7 6 5 5 5 5 5 5 5 5 5 5 3 2 0 1 3 4 4 4 5 5 5 6 7 8 9 6 3 3 3 2 2 2 3 4 5 6 7 7 7 8 9 9 9 9 9 10 12 13 15 16 17 17 18 19 20 20 20 19 17 16 14 14 14 14 13 13 12 12 13 13 13 14 14 16 17 18 19 17 15 13 11
8 6 6 5 4 4 4 5 4 4 4 5 6 5 4 3 1 1 1 3 4 5 6 6 6 6 7 8 7 5 3 3 3 3 3 3 3 4 5 6 7 8 8 9 9 10 10 9 9 10 12 14 15 16 17 17 18 19 20 21 21 20 18 17 16 16 15 15 14 13 13 13 13 13 13 13 13 13 15 16 16 16 15 13 10
6 5 5 4 3 3 4 4 4 4 4 5 6 6 5 4 3 2 1 2 3 4 6 7 7 6 7 7 7 6 6 5 4 4 4 4 4 5 6 7 8 9 10 10 11 11 10 9 9 10 12 14 15 16 16 17 18 19 21 22 22 22 21 19 19 18 17 17 15 15 14 14 14 15 14 14 13 13 13 13 13 13 13 12 11
5 5 5 4 3 3 4 4 3 3 3 4 5 6 6 5 4 3 2 2 2 4 5 7 7 7 7 7 7 7 7 7 5 5 5 5 5 6 7 7 8 9 11 12 12 13 12 11 11 12 13 14 15 16 17 18 19 20 22 23 24 24 24 22 22 21 20 19 18 17 16 16 16 16 16 16 15 13 12 12 12 12 11 10 11
6 6 5 4 4 4 4 4 3 3 3 4 4 5 6 5 4 3 3 3 3 3 4 6 6 6 7 8 9 9 8 8 6 5 6 6 5 5 6 7 8 9 10 11 12 13 13 14 14 14 14 15 16 17 18 20 20 21 23 24 25 26 26 25 24 23 23 22 21 20 19 18 18 18 18 17 17 15 14 13 13 12 11 10 10
7 7 6 5 4 5 5 5 4 3 3 4 4 5 6 5 5 4 4 3 2 1 3 5 5 6 8 9 10 11 11 11 8 6 6 6 6 5 6 6 7 7 8 10 10 11 12 13 14 15 15 15 16 17 19 20 19 20 22 23 25 26 27 26 26 25 25 24 23 22 22 21 20 20 20 20 20 19 16 14 13 13 12 10 9
8 8 7 6 6 6 5 5 5 4 4 4 5 6 6 6 6 5 4 3 2 0 2 4 5 6 8 9 8 9 12 13 10 8 7 7 6 6 6 7 6 6 6 7 9 9 10 12 13 15 16 16 16 17 18 19 19 20 21 22 23 25 26 27 27 26 25 25 25 24 23 22 21 21 22 22 23 21 18 16 16 15 14 12 11
9 9 8 7 7 7 6 6 6 5 5 5 5 6 7 6 6 6 6 4 2 2 1 3 4 4 6 7 8 8 10 12 12 9 8 7 7 7 7 7 7 6 5 6 7 9 10 12 12 14 15 16 16 17 17 18 18 19 19 20 22 23 24 25 26 26 26 25 25 24 24 23 23 22 22 23 24 23 20 19 18 18 16 14 12
10 10 9 9 8 8 7 7 7 7 6 6 6 7 8 8 7 7 7 5 3 2 0 2 3 3 3 5 7 7 8 10 12 11 8 7 6 6 6 7 7 6 5 5 7 10 11 12 13 13 13 14 16 16 15 16 17 18 18 18 19 22 23 23 24 25 26 25 25 24 24 23 23 23 23 23 24 24 22 20 20 19 18 17 14
10 10 10 10 9 9 8 8 9 8 8 7 7 7 9 9 9 9 8 6 4 4 1 2 2 2 2 3 5 6 6 7 10 11 10 9 7 5 5 6 6 6 6 6 8 10 11 11 12 13 13 13 15 15 14 15 16 17 17 16 17 19 21 22 22 23 24 25 25 25 24 24 24 24 23 24 24 24 23 22 21 20 20 19 17
11 11 11 10 10 10 9 9 10 9 9 8 8 8 8 9 9 9 9 8 6 5 3 1 2 1 1 2 3 4 4 5 8 9 9 10 10 8 6 5 5 4 4 6 7 9 10 10 12 13 13 14 15 15 13 13 15 16 16 16 16 17 18 20 20 21 23 23 24 24 24 24 24 24 24 24 24 24 24 23 22 22 21 20 19
10 11 11 11 11 10 10 10 10 10 9 9 9 9 9 9 9 8 8 9 7 6 5 2 1 2 1 2 3 3 3 4 6 8 8 9 10 10 7 5 4 3 3 4 6 8 9 10 11 12 14 15 15 13 13 13 14 16 16 16 16 16 17 18 19 20 21 22 22 23 24 24 24 24 24 24 24 24 23 23 23 23 22 21 20
10 10 11 11 11 11 11 11 11 11 10 10 10 10 10 10 9 8 8 9 8 7 6 4 2 2 2 3 3 3 3 5 6 7 7 8 8 9 7 6 4 2 2 3 4 7 8 9 10 10 12 14 14 13 13 14 15 16 16 16 15 15 16 17 18 18 19 20 21 22 22 23 23 24 23 24 24 24 24 23 23 23 22 21 21
11 11 11 11 11 11 11 11 11 11 10 10 10 10 10 10 9 8 8 9 9 8 7 6 5 4 3 3 3 3 3 5 6 6 6 6 6 7 7 6 5 4 4 4 4 6 8 8 8 9 10 12 13 12 12 14 15 16 16 16 16 16 16 16 17 18 18 19 20 20 21 21 22 22 23 23 24 24 24 23 23 22 21 21 20
11 11 11 10 10 10 10 10 10 10 10 10 10 10 9 9 9 8 8 9 9 8 7 6 6 6 5 4 4 3 1 3 5 5 5 4 4 5 6 6 7 6 6 6 5 6 8 8 8 9 9 10 11 12 12 12 13 16 16 16 16 17 17 17 17 18 18 18 19 19 20 20 19 20 20 22 23 23 24 23 23 22 21 20 20
9 9 9 9 9 9 9 9 10 10 10 10 11 10 9 8 8 8 8 9 9 9 6 6 7 8 8 6 5 4 1 1 3 3 4 4 4 5 5 5 6 7 8 8 7 8 8 8 9 9 9 9 11 12 12 12 13 15 16 16 16 16 17 17 17 18 17 17 18 18 19 19 18 18 18 20 21 22 23 23 22 22 21 20 19
8 8 9 9 9 8 9 9 10 10 10 10 11 10 8 8 8 8 8 9 9 9 7 7 7 8 9 8 7 5 3 2 1 1 2 3 4 5 6 6 6 6 7 9 10 10 9 9 8 8 8 9 11 11 12 13 14 15 17 18 18 17 17 17 18 18 17 17 17 17 17 17 18 17 16 17 19 20 22 22 22 22 21 20 19
8 9 9 9 8 9 9 9 9 10 10 11 11 10 9 8 8 7 8 8 8 8 8 8 8 8 8 8 7 7 6 4 3 2 1 2 3 5 6 7 7 7 8 9 10 11 10 9 8 7 7 8 10 11 13 13 13 15 17 19 20 19 18 18 18 18 17 16 16 15 15 16 17 16 16 16 17 18 19 21 22 21 21 21 20
8 9 9 9 9 9 9 9 9 9 10 10 10 10 9 9 8 7 7 8 8 8 8 8 8 8 8 8 8 8 8 7 6 5 3 2 3 5 6 7 8 9 9 11 11 11 9 8 7 7 6 7 9 11 12 12 13 16 18 19 20 20 18 18 18 18 17 16 14 14 14 15 16 16 15 15 16 16 17 19 20 20 19 20 20
9 9 10 10 10 10 9 9 10 10 9 10 10 10 10 9 8 7 7 8 8 8 8 8 8 9 9 9 9 9 9 9 8 8 6 6 6 6 7 8 9 10 11 12 12 12 10 7 6 7 6 7 8 9 11 13 15 17 18 19 20 20 19 18 18 17 17 15 13 13 13 13 15 16 16 16 15 16 16 17 18 18 18 18 19
10 10 10 11 11 11 11 10 10 10 9 9 9 10 9 9 8 7 7 7 7 7 7 8 8 9 9 9 10 10 10 11 11 10 10 9 9 9 9 10 11 12 12 13 14 14 13 10 8 8 9 9 9 10 11 13 16 17 18 19 20 20 18 17 17 16 15 13 11 11 11 12 13 15 16 16 16 16 16 17 17 17 17 16 17
10 11 11 12 12 12 12 11 11 10 10 10 9 9 8 8 7 7 7 7 7 7 6 7 7 8 8 8 9 10 10 11 12 12 12 11 11 11 11 11 12 12 13 15 16 16 15 12 9 9 10 11 12 13 14 14 16 16 17 18 19 19 18 17 16 14 14 12 10 9 10 11 12 13 15 16 17 17 17 17 16 16 16 15 15
11 12 12 12 12 12 12 12 11 11 11 10 10 9 8 8 7 6 7 8 7 6 5 6 6 7 7 7 8 9 10 11 12 14 13 13 12 12 12 12 12 13 14 15 16 16 14 12 10 9 10 11 12 13 15 15 15 15 14 15 17 17 16 15 14 13 12 11 9 8 9 10 11 13 14 15 16 17 17 17 17 16 15 14 13
12 12 13 13 13 12 12 11 11 11 11 10 10 10 9 8 7 7 7 7 6 5 5 5 5 6 6 6 5 6 8 9 10 12 12 12 12 12 12 12 12 13 14 14 15 15 15 13 12 11 11 12 12 13 14 14 14 14 14 14 14 14 14 13 12 12 11 10 8 7 8 9 11 12 13 14 15 16 17 17 17 16 16 14 12
13 13 13 13 13 13 12 11 10 11 11 11 11 11 10 9 9 8 7 7 6 5 5 4 5 5 5 5 4 5 6 6 6 7 8 9 9 9 10 10 11 12 13 14 14 15 16 15 14 13 13 13 13 12 12 13 13 14 14 13 11 12 12 13 12 12 11 10 9 8 8 9 10 12 13 13 14 16 16 17 17 17 16 14 13
15 14 14 14 13 13 13 11 10 10 10 10 11 11 11 10 10 9 8 8 7 7 6 5 5 5 5 5 5 6 7 6 6 6 7 7 7 8 8 9 10 11 12 13 14 15 17 17 15 15 15 14 13 12 13 13 13 14 13 12 11 11 12 13 13 13 12 11 11 11 10 10 11 12 13 13 14 15 16 17 18 17 16 14 13
16 15 15 15 15 14 13 12 11 10 9 9 9 10 10 10 11 11 10 9 9 8 7 7 7 7 7 7 6 7 8 8 7 7 7 7 8 8 9 9 9 10 11 12 13 14 15 16 16 14 14 13 12 12 13 14 14 13 12 11 11 11 11 12 12 13 13 13 13 12 12 12 12 13 13 13 14 15 16 17 18 18 16 14 13
17 17 16 16 16 16 15 13 12 11 10 9 9 9 9 9 11 12 12 11 11 10 9 8 8 9 9 9 8 9 9 9 9 8 8 9 9 9 10 10 10 10 10 11 11 13 13 14 14 12 11 11 11 10 11 12 13 12 12 11 10 10 11 11 11 11 12 13 13 13 13 13 14 14 14 14 14 15 16 17 18 18 17 15 13
18 18 17 16 16 15 15 14 12 11 10 9 9 9 9 9 10 11 12 12 12 12 11 10 10 10 10 11 11 11 11 11 10 10 10 10 11 11 10 10 9 9 9 8 9 10 11 11 12 12 11 11 11 10 10 11 12 12 13 14 12 11 12 12 12 12 12 13 13 14 14 15 15 15 15 16 16 17 17 18 18 18 18 16 14
19 18 17 17 15 14 14 13 12 10 10 9 9 8 8 8 9 9 10 11 12 12 12 11 10 10 10 11 11 12 12 12 12 11 11 11 12 12 10 9 8 8 8 8 9 10 12 13 14 14 15 15 14 13 13 13 14 14 15 16 15 14 14 15 14 14 14 15 15 15 15 16 17 18 18 19 19 18 19 19 19 18 17 16 15
19 18 17 16 15 14 14 13 11 11 10 10 9 8 7 7 7 8 8 9 10 10 10 10 10 10 11 11 11 11 12 12 13 13 12 12 12 12 10 9 9 10 10 11 11 12 13 15 16 16 17 18 17 16 17 16 16 17 17 17 18 18 18 19 17 16 17 17 18 18 17 18 19 20 20 20 20 19 19 18 18 17 17 16 16
20 19 18 17 16 15 14 13 13 12 12 11 10 9 8 7 7 8 9 9 10 9 9 9 9 9 9 10 11 11 12 13 13 13 13 12 12 12 11 10 11 12 13 14 14 14 15 17 17 17 19 20 19 19 20 19 19 19 19 19 21 21 21 23 20 17 17 18 19 20 19 18 19 21 20 20 18 17 16 16 15 15 15 15 16
19 20 19 18 17 15 15 14 14 14 13 12 11 11 10 10 10 10 11 11 11 11 10 10 9 9 9 9 10 11 12 12 13 13 13 13 12 12 12 12 13 14 15 16 17 17 18 19 19 19 21 23 22 21 22 21 21 21 21 21 22 22 22 24 23 20 18 19 21 22 20 18 19 20 19 18 16 15 15 15 15 15 15 15 16
19 19 19 19 17 16 15 15 15 15 14 13 12 12 12 12 12 12 13 13 13 13 12 12 11 11 10 11 11 11 12 12 13 13 14 14 13 14 14 14 15 16 17 18 19 19 20 21 21 22 22 23 23 22 21 22 22 22 22 22 22 23 23 24 25 24 21 21 24 24 22 19 19 20 19 16 15 15 15 16 15 15 15 15 16
21 20 20 20 19 18 16 15 15 15 14 14 13 13 13 13 13 14 14 14 14 14 14 14 14 13 13 13 13 13 12 13 13 13 14 14 14 15 16 16 17 18 18 19 20 21 22 23 24 24 22 22 23 21 20 21 22 23 24 24 24 25 25 25 25 25 22 22 25 27 26 21 19 22 21 17 16 16 16 16 15 15 14 14 15
20 20 20 21 21 20 19 18 17 16 15 15 15 15 15 15 15 16 16 15 15 15 15 15 15 15 15 15 16 15 14 14 14 15 15 16 16 17 18 19 19 20 20 20 21 22 23 24 26 26 23 22 23 22 20 21 23 25 26 26 26 26 27 26 26 25 23 22 24 29 30 25 21 24 23 19 18 17 15 14 14 14 15 15 15
20 19 20 21 22 22 21 20 19 18 17 16 16 16 16 17 17 18 18 17 17 17 16 16 17 17 17 18 19 19 18 17 16 16 17 17 18 19 20 21 22 22 22 22 21 22 23 24 26 27 25 24 24 24 23 23 24 26 27 28 28 28 28 27 27 26 25 23 23 27 31 29 25 26 26 22 21 19 15 13 13 14 15 16 16
21 22 22 22 23 23 22 21 20 20 19 18 17 17 17 18 18 19 19 19 19 19 18 18 19 19 20 20 21 21 21 20 19 19 19 20 21 22 23 24 25 25 26 25 24 25 25 26 27 28 28 27 26 26 26 26 27 27 28 30 30 29 29 29 29 28 26 25 24 25 30 31 28 28 28 25 24 23 18 14 14 14 15 16 17
20 20 21 22 22 22 21 20 19 19 19 18 18 18 18 18 19 19 19 20 20 20 20 20 21 21 21 21 22 22 22 22 22 22 24 25 26 27 28 28 29 30 30 29 28 28 28 29 30 31 31 30 29 28 28 28 28 28 30 32 31 29 29 30 31 30 28 27 26 26 29 32 29 28 29 28 27 26 22 19 17 16 17 17 17
17 15 16 18 19 19 19 20 20 19 18 18 17 17 18 19 19 20 20 20 21 21 21 21 21 22 22 22 23 24 24 25 26 26 27 27 28 28 29 29 30 30 30 29 29 29 29 30 31 32 33 33 33 32 31 30 30 29 30 32 31 30 30 31 32 32 31 31 28 26 28 30 29 29 30 29 29 28 26 23 21 20 19 19 18
15 14 14 14 15 16 16 17 19 18 18 18 17 17 17 18 19 20 21 21 21 22 22 22 23 23 23 23 24 25 26 27 28 28 27 27 27 27 27 28 28 29 28 27 28 28 29 29 30 31 32 33 34 34 33 32 31 31 31 32 31 31 31 32 31 31 32 33 29 26 27 29 29 29 29 28 30 30 28 26 25 24 23 22 20
Wind_Direction
121 120 118 119 117 117 115 112 108 104 105 103 101 100 96 92 87 84 80 78 76 73 73 74 73 69 64 61 58 57 55 52 48 45 42 40 36 33 30 27 26 22 20 19 18 20 24 28 29 31 31 31 31 29 29 27 23 20 18 17 16 17 13 6 3 352 346 342 335 330 326 325 330 331 328 326 327 332 330 320 329 3 12 346 256
123 121 120 119 118 118 118 115 111 109 109 109 109 105 98 94 90 87 83 81 78 74 73 72 69 64 62 59 56 54 53 51 46 43 40 37 36 35 33 28 24 22 21 21 22 26 32 36 35 35 35 35 34 32 32 30 27 25 22 21 21 20 16 10 9 5 357 350 343 336 332 332 336 340 336 329 322 325 333 321 325 351 13 14 3
125 125 125 125 124 124 124 123 120 118 117 115 114 107 102 100 97 92 86 80 74 71 70 69 68 63 59 55 52 50 48 47 43 41 37 35 36 35 31 27 24 25 26 27 29 35 39 41 40 39 39 37 36 33 32 30 28 27 25 23 22 21 19 16 14 13 5 356 352 343 337 342 345 345 342 336 329 331 333 324 329 339 354 27 28
130 130 131 130 129 129 130 131 130 127 123 119 118 114 111 107 103 97 89 81 71 70 70 69 66 61 57 50 46 46 43 42 39 38 36 34 35 32 29 29 31 32 34 37 37 41 45 46 45 43 41 38 36 35 32 31 30 29 26 24 23 22 21 20 17 16 10 2 360 351 346 351 349 345 347 342 338 334 328 322 330 338 339 11 23
137 137 136 133 132 134 138 140 138 132 127 125 123 120 115 108 104 97 88 82 75 75 72 68 61 55 53 47 43 42 39 34 32 34 32 31 33 33 34 38 41 41 42 44 43 45 46 46 45 43 42 41 39 38 36 34 32 30 27 25 23 22 21 19 15 14 12 7 3 357 353 353 347 344 347 345 343 338 329 322 320 334 337 336 1
144 144 144 141 139 141 149 150 143 136 134 136 132 122 114 105 100 89 81 77 75 75 69 61 55 48 44 38 34 34 32 26 23 28 29 29 33 41 49 51 49 47 46 46 44 43 42 40 41 41 43 44 44 42 39 35 32 30 27 24 21 18 15 12 10 7 6 5 359 354 350 348 346 342 341 341 341 340 338 335 325 327 328 315 344
150 150 149 149 147 147 155 157 153 147 147 148 142 124 108 96 87 77 74 72 71 70 63 52 44 40 36 31 28 25 24 22 20 27 32 35 46 56 58 53 49 46 45 46 44 41 38 36 37 41 44 46 46 42 37 33 29 27 23 20 16 12 8 3 360 356 355 355 351 347 341 339 341 339 338 337 336 336 336 340 338 330 318 299 326
157 156 153 152 153 155 159 163 162 160 160 158 148 134 116 92 77 67 65 65 66 61 51 41 33 33 31 28 25 22 21 22 25 35 43 48 62 69 57 46 44 41 43 46 45 41 35 34 37 42 44 45 44 39 34 29 24 21 16 12 9 5 3 359 355 352 349 347 344 340 336 335 338 338 338 336 335 335 331 336 341 333 328 323 327
157 159 159 157 157 157 158 166 171 171 173 173 166 167 160 106 65 47 41 37 38 40 41 34 25 24 23 20 17 18 19 24 35 48 55 61 69 72 59 48 43 41 44 48 47 42 34 33 38 44 45 45 41 36 31 26 20 14 9 5 1 359 358 357 357 357 355 354 351 347 343 340 339 342 344 343 343 341 337 341 346 342 341 342 342
159 164 162 159 161 163 164 170 182 189 196 196 187 187 180 135 60 32 23 18 21 24 29 29 23 17 10 6 8 14 26 37 53 66 72 76 79 76 63 54 49 47 50 51 49 45 39 37 41 47 48 46 40 34 29 23 16 9 4 1 358 356 356 358 2 4 5 4 2 360 355 349 344 346 353 353 351 349 348 350 351 352 353 355 1
165 168 164 160 165 175 182 183 189 198 206 209 199 194 194 176 86 30 10 2 2 3 8 13 14 11 5 2 4 14 45 67 77 84 85 86 86 79 66 61 60 59 56 53 51 47 44 44 47 51 50 45 39 33 28 20 12 5 3 4 3 2 2 5 9 11 13 12 10 7 2 358 355 355 358 357 356 352 349 350 350 351 356 3 9
169 168 164 164 167 179 191 187 181 182 191 202 200 202 204 204 224 266 336 331 340 356 2 0 3 8 11 15 17 27 59 86 87 70 59 63 68 69 69 74 75 70 65 61 58 55 52 50 52 53 49 44 39 32 26 19 11 5 7 11 11 13 15 15 16 16 16 14 11 9 5 1 358 357 356 354 354 351 347 350 349 350 358 7 14
173 171 169 167 162 166 178 180 177 175 184 198 203 210 213 219 241 255 280 299 330 355 357 354 2 14 23 32 39 45 50 59 60 46 43 45 53 69 79 85 85 80 76 73 69 63 57 51 50 50 46 42 39 33 26 20 14 13 16 19 19 22 23 22 22 20 17 14 11 8 3 360 357 356 356 354 354 356 357 0 0 2 4 5 15
182 179 178 176 169 164 170 181 191 195 202 203 209 215 217 229 240 236 248 273 322 349 360 5 14 24 34 44 48 50 48 40 24 18 30 37 49 76 86 87 88 85 82 80 73 66 61 56 52 48 44 41 38 33 27 21 19 22 24 24 26 28 28 28 27 24 21 18 14 11 7 3 3 3 4 3 3 6 11 15 17 18 15 7 11
190 186 186 191 188 183 184 196 211 216 206 192 193 202 210 226 225 219 240 261 305 340 12 21 24 27 34 42 43 46 46 37 28 19 22 30 41 65 85 87 87 87 85 82 71 65 64 58 51 45 41 38 35 31 27 22 22 27 27 27 31 32 31 31 30 28 26 23 21 19 15 12 12 13 14 14 12 12 13 16 24 30 29 24 15
192 190 193 200 204 201 198 204 212 213 198 183 180 192 203 216 217 220 238 251 295 351 22 27 31 28 30 35 37 39 31 24 32 34 25 32 40 51 73 82 84 87 86 82 70 64 61 53 47 42 37 34 31 29 26 22 24 29 29 29 34 35 34 33 32 30 28 27 26 23 21 20 19 20 21 20 18 16 15 17 29 40 41 40 31
193 192 194 201 210 214 210 207 209 203 191 189 196 206 208 209 215 224 232 246 269 148 49 39 38 27 27 30 29 26 19 17 29 41 36 39 45 52 68 76 78 82 82 78 69 64 58 50 46 41 35 32 29 28 27 24 25 30 30 30 34 36 36 34 33 31 29 28 28 26 24 22 21 23 24 24 23 22 22 23 30 39 45 48 44
198 196 197 204 212 218 215 209 209 204 195 197 204 209 208 204 212 221 225 242 241 185 74 46 34 17 25 29 23 17 15 19 25 33 43 48 51 54 61 66 67 69 69 70 69 69 61 51 45 40 34 30 28 29 28 25 25 29 30 30 32 34 34 34 33 31 30 29 29 28 26 23 21 22 23 25 26 26 28 28 28 32 37 43 47
203 202 203 207 212 214 210 207 212 213 207 205 205 204 204 206 212 216 223 238 229 203 185 34 17 2 15 21 17 14 16 23 23 25 35 42 50 53 49 54 62 64 61 68 77 72 62 51 43 37 31 28 27 29 30 27 26 30 32 30 29 30 30 31 32 31 30 29 28 28 28 26 24 22 22 24 27 28 29 29 29 29 31 35 39
207 206 205 206 211 212 208 209 214 218 215 211 210 207 206 210 214 218 225 236 229 221 246 20 19 358 360 2 4 9 16 25 23 23 28 29 35 40 40 53 67 68 64 75 79 64 52 46 40 34 28 24 25 28 31 28 26 31 35 32 28 26 26 27 28 29 28 28 27 26 26 27 26 25 24 24 25 27 28 29 29 28 29 32 34
208 207 206 206 211 213 212 211 211 215 214 210 214 213 209 211 213 218 227 233 233 233 246 332 27 10 347 341 352 9 18 20 18 21 27 27 25 25 35 57 75 78 69 72 69 54 43 37 35 34 26 22 24 27 32 30 27 32 36 35 30 26 25 24 25 26 25 24 25 24 23 24 25 26 26 26 25 25 26 28 29 29 28 30 33
206 207 209 210 211 213 213 210 209 214 212 209 213 215 212 212 214 220 227 230 234 241 246 249 344 355 339 329 339 2 18 15 14 19 25 27 25 26 35 47 61 75 62 55 51 44 39 30 29 33 27 22 25 31 34 31 28 31 34 35 32 29 25 22 21 22 22 21 22 22 22 22 22 23 25 28 28 26 25 26 27 28 28 27 30
205 208 211 210 209 211 212 209 209 213 212 208 212 215 213 212 216 223 229 231 236 244 247 243 260 310 328 331 332 347 14 17 15 16 20 24 27 32 33 26 23 27 22 27 28 27 29 25 23 27 25 21 26 35 36 32 30 29 30 31 31 27 22 18 17 17 17 17 17 19 20 20 20 21 23 26 27 28 26 25 26 27 27 26 27
207 210 212 211 210 210 210 209 210 212 211 210 215 218 216 214 219 225 232 235 238 245 245 241 250 268 289 314 319 328 6 14 16 21 23 24 28 33 32 24 19 9 353 354 357 4 14 17 14 16 16 15 20 27 28 29 28 24 25 27 26 25 19 13 11 11 11 12 12 14 16 18 19 21 23 24 25 28 28 27 26 25 26 27 26
210 211 212 214 215 214 212 210 210 212 212 214 220 221 218 220 225 228 231 236 241 248 245 238 243 252 260 278 291 291 340 12 18 33 39 30 25 27 27 26 26 20 7 0 352 352 359 360 358 1 2 0 3 7 10 17 20 19 20 21 20 21 20 14 9 7 7 7 7 9 11 14 17 20 22 23 23 26 27 27 26 25 25 26 26
215 213 213 216 216 216 215 210 210 213 214 217 223 223 221 225 229 231 234 239 244 249 245 237 241 248 253 258 265 264 251 359 17 43 50 35 18 12 11 10 16 18 16 11 360 351 351 347 345 346 345 342 341 347 355 2 7 10 12 11 10 12 16 15 10 6 4 5 5 4 7 10 13 16 19 20 21 22 24 25 25 25 25 25 27
217 213 212 214 213 214 214 209 212 215 216 220 223 224 223 223 225 231 238 243 242 241 240 237 241 250 254 253 250 246 234 229 304 32 49 33 10 358 353 345 343 348 356 360 358 356 352 346 344 341 336 331 327 331 341 348 354 359 360 360 359 0 4 8 8 5 2 4 5 2 3 5 8 11 14 16 18 19 21 22 23 24 24 24 25
214 210 211 212 210 212 213 211 215 219 221 224 226 226 224 221 223 228 235 237 234 233 236 235 237 247 253 252 245 240 235 229 240 271 329 4 352 346 343 340 337 334 333 337 344 350 350 346 343 338 330 324 318 321 328 334 341 346 348 348 348 351 354 358 2 1 358 0 4 3 1 3 5 8 10 11 13 16 19 20 22 24 25 24 24
216 211 214 216 213 213 215 215 219 224 226 227 228 227 224 223 225 227 228 230 229 231 234 236 239 244 249 249 244 242 240 236 243 259 271 297 316 324 329 330 334 335 332 331 334 340 342 339 336 330 322 314 307 308 315 322 329 334 337 339 340 343 348 351 354 356 354 354 0 2 359 0 4 8 8 8 10 13 16 19 20 22 25 27 26
220 217 218 219 217 216 215 213 219 225 228 228 227 226 225 225 227 227 225 226 228 231 234 237 239 242 245 245 244 244 243 241 248 258 265 274 285 299 311 318 322 325 328 329 329 331 329 322 316 312 308 304 300 299 306 314 321 324 327 331 334 336 342 347 349 350 348 349 355 359 357 359 3 7 9 10 10 10 12 15 17 18 21 26 28
222 223 224 222 221 219 215 211 215 222 228 229 227 227 230 230 229 228 227 229 231 231 234 236 236 238 242 244 246 246 244 245 252 263 271 273 276 284 293 303 310 313 317 319 320 321 319 310 299 295 294 294 296 299 304 309 314 318 321 326 328 331 336 342 345 345 343 345 351 355 354 357 0 5 9 11 12 11 9 10 11 13 15 18 22
225 227 228 226 223 221 219 215 214 218 222 225 227 230 233 232 228 226 229 234 237 234 235 239 240 240 241 243 246 247 246 247 253 263 272 275 275 279 284 291 297 302 306 308 310 313 314 307 297 292 291 291 292 295 300 305 310 316 320 324 324 326 332 338 341 341 338 339 348 353 352 355 358 3 7 9 11 11 8 7 6 6 6 8 12
229 230 230 229 226 223 222 220 218 219 219 221 226 230 232 232 228 224 229 236 239 235 232 238 245 247 245 242 243 247 249 250 254 261 267 271 273 277 281 284 287 291 295 299 303 306 308 304 298 293 292 292 293 295 299 304 309 312 316 319 320 323 330 333 336 337 333 331 340 348 350 353 355 359 3 5 7 8 7 5 2 1 359 358 1
230 230 229 230 230 228 226 224 222 221 221 222 225 228 230 233 232 226 227 236 242 238 230 232 243 254 256 249 245 251 256 257 260 263 265 268 273 277 281 282 282 283 285 288 294 298 301 302 301 299 299 298 299 302 304 306 308 310 314 316 317 321 326 328 329 330 325 320 324 333 341 345 347 350 354 358 1 3 4 2 360 358 355 352 352
230 229 229 229 230 231 230 228 225 225 227 227 228 232 232 233 237 235 233 237 244 247 243 235 239 252 261 259 253 255 261 264 267 269 270 271 275 279 282 285 287 286 284 282 283 288 294 298 300 303 304 304 306 310 312 312 314 317 319 319 319 319 320 319 320 321 316 311 312 315 323 332 336 339 341 345 350 354 357 358 358 356 351 347 344
231 229 229 228 228 229 232 233 231 230 232 232 234 238 239 239 243 243 241 240 242 248 252 248 244 247 250 252 253 255 261 265 263 264 269 271 275 279 284 289 292 293 291 286 283 283 287 292 297 302 305 307 311 315 318 318 319 321 322 321 319 315 313 313 315 315 311 309 310 310 313 320 325 329 330 332 335 340 346 350 353 353 349 343 338
235 233 230 228 226 228 230 232 235 235 235 237 242 245 247 249 249 248 246 244 243 245 251 256 257 255 253 252 254 258 263 268 268 268 271 274 275 277 280 285 289 289 289 288 287 287 287 291 297 302 306 310 313 318 322 322 322 322 321 319 317 315 312 311 312 311 308 307 308 309 310 311 315 320 321 321 323 328 333 337 343 348 345 337 330
237 237 234 231 228 229 229 230 232 235 236 241 247 252 255 257 255 253 250 247 247 247 249 256 261 262 263 263 264 264 267 270 274 277 280 282 281 282 284 285 283 279 278 280 284 287 290 295 299 304 311 315 316 323 330 328 328 330 324 316 315 317 315 310 306 305 304 304 303 303 304 304 306 310 310 309 312 317 322 326 331 338 339 331 321
238 238 236 233 230 230 231 231 232 235 237 241 246 252 257 260 261 258 256 255 254 253 252 256 261 265 268 271 272 272 270 269 272 276 281 285 286 287 287 283 277 273 271 276 282 288 294 299 302 306 311 313 315 321 329 329 330 335 332 323 317 315 313 310 308 304 300 299 298 296 296 297 297 297 297 299 304 309 313 316 320 326 330 325 313
235 236 234 230 229 229 229 230 232 235 237 238 240 245 249 255 260 261 262 261 261 260 259 259 263 269 274 277 279 278 276 273 274 276 279 283 284 284 281 273 267 266 271 279 285 290 295 297 298 302 304 304 307 311 316 319 321 327 329 326 322 319 315 311 310 309 305 300 299 297 296 294 294 294 295 297 302 305 308 311 315 319 320 316 306
235 234 230 227 228 230 230 230 231 233 236 236 233 230 233 241 252 263 268 269 269 270 271 269 271 274 277 282 284 284 284 281 280 280 281 282 283 283 279 268 263 269 276 282 287 291 295 296 297 301 302 302 306 311 313 313 317 320 320 320 319 319 318 313 308 309 310 307 302 299 298 298 298 299 301 303 305 307 309 312 314 314 311 306 297
235 233 230 229 230 234 237 237 237 237 239 239 232 225 226 235 251 265 273 277 280 281 282 282 280 279 281 283 284 285 284 282 282 283 283 283 282 282 281 274 269 274 279 282 286 290 294 296 298 303 304 304 307 312 312 312 316 317 317 317 316 315 318 316 310 306 312 315 309 300 298 301 303 303 305 309 312 315 316 317 315 310 303 294 287
241 237 235 234 234 237 243 247 249 249 247 245 238 231 230 237 251 262 268 274 279 280 283 283 282 282 282 282 282 281 278 276 276 277 278 279 278 278 279 278 275 276 280 283 286 288 292 294 296 300 302 302 304 307 308 309 312 313 313 314 315 317 320 319 314 310 312 317 313 305 300 303 304 305 307 311 316 319 319 318 315 308 298 288 281
246 246 246 247 245 246 249 252 254 255 253 252 248 243 240 241 249 257 260 264 268 270 274 277 278 280 280 280 280 279 277 277 276 276 275 275 275 276 276 277 276 275 277 281 284 287 290 292 294 295 296 298 300 302 305 308 310 310 310 311 313 315 316 315 312 310 309 312 311 306 301 302 304 303 304 310 316 318 315 311 310 304 296 289 284
237 241 248 252 253 253 255 256 256 256 255 254 253 249 246 245 250 255 258 260 262 264 268 271 274 276 278 280 281 280 282 284 284 285 284 282 282 281 281 281 279 279 279 279 281 283 286 288 289 290 292 295 297 301 307 310 310 310 309 309 308 308 307 306 304 303 303 305 306 304 300 299 302 301 300 305 312 313 310 307 304 301 298 295 293
239 237 241 248 251 252 254 256 258 259 258 258 257 256 253 250 251 255 257 260 262 264 267 270 272 273 274 276 277 277 279 281 282 285 287 287 286 282 280 278 277 277 278 278 280 282 284 286 287 288 289 289 292 297 304 306 306 308 308 307 304 301 299 298 297 296 297 298 300 301 299 297 299 297 295 299 304 304 304 301 299 300 300 297 297
248 245 244 247 250 252 252 253 256 258 260 262 263 263 262 258 256 257 260 263 265 266 268 268 269 269 269 271 272 273 274 274 276 280 282 283 282 279 277 276 274 273 273 273 275 277 279 281 283 285 285 284 286 290 295 297 299 301 304 303 301 298 294 292 291 291 292 292 293 297 296 295 296 295 293 296 298 295 291 289 294 299 298 296 297
250 249 248 248 250 252 254 254 255 256 257 259 262 266 266 264 260 258 259 262 265 267 267 267 267 266 267 269 270 271 272 272 273 276 279 280 281 282 282 281 281 280 279 279 278 277 276 276 277 278 279 280 282 284 288 292 294 297 299 299 299 298 295 291 289 287 287 289 290 293 293 291 292 295 295 296 296 292 284 278 283 289 290 291 294
243 245 245 244 246 248 248 248 249 250 251 254 258 262 267 268 266 263 262 263 265 266 266 266 266 265 266 267 268 269 270 271 272 275 278 280 282 283 285 285 286 286 288 289 287 284 281 278 276 275 276 276 278 279 281 286 289 293 295 296 298 299 295 290 288 287 286 286 287 289 290 289 292 297 298 297 295 291 285 278 275 276 278 282 287
230 232 233 235 237 239 239 238 238 239 242 246 250 254 260 264 267 267 266 266 265 265 265 265 266 266 267 267 269 271 271 272 274 276 278 280 282 284 285 286 287 290 293 295 292 290 287 283 281 279 276 275 276 277 279 281 284 288 290 292 296 298 292 287 287 289 288 286 285 288 289 289 292 298 300 300 297 290 285 281 276 270 271 275 277
222 227 233 235 234 234 234 234 234 235 237 238 241 247 253 258 261 262 263 264 263 263 263 264 264 265 266 267 269 270 272 273 275 277 279 281 283 284 285 287 288 291 294 295 294 294 292 289 287 284 281 278 277 278 279 281 283 285 287 290 293 294 289 286 286 289 289 288 289 292 291 290 293 297 300 303 300 293 287 285 281 275 273 273 273
Height
1602 1603 1603 1604 1605 1605 1606 1606 1607 1607 1608 1609 1610 1610 1611 1612 1612 1613 1614 1614 1615 1615 1616 1616 1616 1616 1616 1616 1616 1616 1616 1616 1616 1615 1615 1615 1615 1615 1614 1614 1614 1613 1613 1612 1612 1611 1610 1610 1609 1609 1608 1607 1607 1606 1606 1605 1605 1604 1604 1603 1602 1601 1600 1600 1599 1599 1598 1597 1596 1595 1594 1593 1593 1593 1592 1590 1589 1588 1587 1585 1584 1585 1585 1583 1583
1604 1604 1605 1606 1606 1607 1607 1608 1609 1609 1610 1611 1611 1612 1613 1613 1614 1614 1615 1616 1616 1616 1617 1617 1617 1617 1617 1617 1617 1617 1617 1617 1617 1617 1616 1616 1616 1616 1615 1615 1614 1614 1613 1613 1613 1612 1611 1611 1610 1609 1609 1608 1608 1607 1607 1606 1605 1605 1604 1604 1603 1602 1601 1600 1599 1599 1598 1597 1596 1595 1594 1593 1593 1592 1592 1591 1589 1587 1586 1584 1584 1585 1584 1583 1582
1605 1606 1606 1607 1608 1609 1609 1610 1610 1611 1611 1612 1613 1614 1614 1615 1615 1616 1617 1617 1617 1618 1618 1618 1618 1618 1619 1619 1619 1618 1618 1618 1618 1618 1617 1617 1617 1617 1616 1616 1615 1615 1614 1614 1613 1613 1612 1612 1611 1611 1610 1609 1609 1608 1608 1607 1606 1606 1605 1604 1603 1602 1601 1600 1599 1599 1598 1597 1596 1594 1594 1593 1593 1592 1591 1590 1589 1587 1586 1585 1584 1584 1584 1583 1582
1607 1607 1608 1609 1609 1610 1611 1611 1612 1612 1613 1614 1615 1615 1616 1617 1617 1617 1618 1618 1618 1619 1619 1619 1619 1620 1620 1620 1620 1619 1619 1619 1619 1619 1618 1618 1618 1618 1617 1617 1616 1616 1615 1615 1614 1614 1613 1613 1612 1612 1611 1610 1610 1609 1609 1608 1607 1607 1606 1605 1604 1603 1601 1600 1599 1599 1598 1597 1596 1594 1593 1593 1592 1591 1590 1590 1589 1589 1587 1585 1584 1583 1583 1583 1582
1608 1609 1609 1610 1611 1612 1613 1613 1613 1614 1615 1615 1616 1617 1617 1618 1618 1619 1619 1619 1619 1620 1620 1620 1620 1620 1621 1621 1620 1620 1620 1620 1620 1619 1619 1619 1619 1618 1618 1618 1617 1617 1616 1616 1615 1615 1614 1614 1613 1613 1612 1611 1611 1610 1610 1609 1608 1608 1607 1606 1605 1603 1602 1601 1600 1599 1599 1598 1596 1594 1593 1593 1592 1591 1590 1589 1589 1589 1588 1585 1584 1583 1582 1582 1582
1609 1610 1611 1611 1612 1613 1614 1614 1615 1615 1616 1617 1617 1618 1619 1619 1619 1620 1620 1620 1620 1621 1621 1621 1621 1621 1621 1621 1621 1621 1621 1621 1620 1620 1620 1620 1619 1619 1619 1619 1618 1618 1617 1617 1616 1616 1615 1615 1614 1614 1613 1612 1612 1611 1611 1610 1609 1608 1608 1606 1605 1604 1602 1601 1600 1599 1599 1598 1597 1595 1593 1592 1592 1591 1590 1589 1588 1588 1586 1585 1584 1583 1582 1581 1582
1610 1611 1612 1612 1613 1614 1615 1616 1616 1617 1617 1618 1619 1619 1620 1620 1620 1621 1621 1621 1621 1622 1622 1622 1622 1622 1622 1622 1622 1621 1621 1621 1621 1621 1621 1620 1620 1620 1620 1620 1619 1619 1618 1618 1617 1617 1616 1616 1615 1615 1614 1614 1613 1612 1612 1611 1610 1609 1608 1607 1606 1604 1603 1601 1600 1599 1598 1598 1597 1595 1593 1592 1591 1591 1590 1589 1588 1586 1585 1585 1584 1583 1582 1581 1581
1611 1612 1613 1613 1614 1615 1616 1617 1617 1618 1619 1619 1620 1620 1621 1621 1621 1622 1622 1622 1622 1623 1623 1623 1623 1623 1622 1622 1622 1622 1622 1621 1621 1621 1621 1621 1621 1621 1621 1621 1620 1620 1619 1619 1618 1618 1617 1617 1616 1616 1615 1615 1614 1613 1613 1612 1611 1610 1609 1607 1606 1604 1603 1601 1600 1599 1598 1597 1596 1595 1593 1591 1590 1590 1589 1589 1588 1586 1584 1584 1584 1583 1582 1581 1581
1611 1612 1613 1614 1615 1616 1617 1618 1618 1619 1620 1620 1620 1621 1621 1622 1622 1622 1623 1623 1623 1623 1623 1623 1623 1623 1623 1623 1622 1622 1622 1622 1622 1622 1622 1622 1621 1621 1621 1621 1621 1620 1620 1619 1619 1618 1618 1618 1617 1616 1616 1615 1615 1614 1614 1613 1612 1611 1609 1608 1606 1605 1603 1601 1600 1599 1598 1597 1596 1595 1594 1592 1590 1589 1589 1588 1587 1586 1584 1584 1583 1582 1581 1582 1581
1612 1613 1614 1615 1616 1616 1617 1618 1619 1620 1620 1621 1621 1622 1622 1623 1623 1623 1623 1623 1624 1624 1624 1624 1624 1623 1623 1623 1623 1622 1622 1622 1622 1622 1622 1622 1622 1622 1622 1621 1621 1621 1620 1620 1619 1619 1619 1618 1618 1617 1617 1616 1616 1615 1614 1614 1613 1611 1610 1608 1606 1605 1603 1601 1600 1599 1598 1597 1596 1595 1594 1592 1591 1590 1589 1588 1587 1586 1585 1584 1583 1582 1582 1582 1581
1613 1614 1614 1615 1616 1617 1618 1618 1619 1620 1621 1621 1622 1622 1623 1623 1623 1624 1624 1624 1624 1625 1625 1624 1624 1624 1624 1623 1623 1623 1623 1623 1623 1623 1623 1622 1622 1622 1622 1622 1622 1621 1621 1621 1620 1620 1619 1619 1619 1618 1618 1617 1616 1616 1615 1614 1613 1612 1610 1608 1606 1605 1603 1602 1600 1599 1598 1597 1596 1595 1594 1593 1592 1591 1590 1589 1588 1587 1586 1584 1583 1582 1582 1582 1581
1613 1614 1615 1615 1616 1617 1618 1619 1620 1620 1621 1622 1622 1623 1623 1624 1624 1624 1625 1625 1625 1625 1625 1625 1625 1624 1624 1624 1623 1623 1623 1624 1624 1624 1624 1623 1623 1623 1622 1622 1622 1622 1621 1621 1621 1620 1620 1620 1619 1619 1618 1618 1617 1616 1616 1615 1614 1612 1610 1609 1607 1605 1603 1602 1600 1599 1598 1597 1596 1595 1595 1594 1593 1592 1591 1590 1589 1588 1587 1585 1584 1582 1582 1582 1582
1613 1614 1615 1616 1617 1617 1618 1619 1620 1621 1622 1622 1623 1623 1624 1624 1625 1625 1625 1626 1626 1626 1626 1626 1625 1625 1624 1624 1624 1624 1624 1624 1625 1624 1624 1624 1624 1623 1623 1623 1622 1622 1622 1622 1622 1621 1621 1621 1620 1620 1619 1619 1618 1617 1616 1615 1614 1613 1611 1609 1607 1605 1604 1602 1601 1599 1598 1597 1596 1595 1594 1594 1593 1592 1591 1590 1589 1588 1587 1586 1584 1583 1582 1582 1582
1613 1614 1615 1616 1617 1618 1618 1620 1620 1621 1622 1623 1623 1624 1624 1625 1625 1626 1626 1626 1626 1627 1626 1626 1626 1625 1625 1625 1625 1625 1625 1625 1625 1625 1625 1624 1624 1624 1624 1623 1623 1623 1623 1623 1622 1622 1622 1621 1621 1621 1620 1619 1618 1618 1617 1616 1615 1613 1612 1610 1608 1606 1605 1603 1601 1600 1599 1598 1597 1596 1594 1593 1592 1591 1591 1590 1589 1588 1587 1586 1585 1584 1583 1582 1581
1613 1614 1615 1616 1617 1618 1619 1620 1621 1622 1622 1623 1623 1624 1625 1625 1626 1626 1627 1627 1627 1627 1627 1627 1627 1626 1626 1626 1626 1626 1625 1625 1625 1625 1625 1625 1625 1625 1624 1624 1624 1624 1624 1623 1623 1623 1623 1622 1622 1622 1621 1620 1619 1618 1617 1616 1615 1614 1612 1611 1609 1607 1606 1604 1603 1601 1600 1599 1598 1596 1595 1594 1593 1592 1591 1590 1589 1588 1587 1586 1585 1584 1583 1582 1582
1613 1614 1615 1616 1617 1618 1619 1620 1621 1621 1622 1623 1624 1624 1625 1626 1626 1627 1627 1627 1628 1628 1628 1628 1628 1627 1627 1627 1627 1626 1626 1626 1625 1625 1625 1625 1625 1625 1625 1625 1625 1625 1625 1624 1624 1624 1624 1623 1623 1622 1622 1621 1620 1619 1618 1617 1616 1615 1613 1612 1610 1609 1607 1605 1604 1603 1601 1600 1599 1598 1596 1595 1594 1593 1592 1591 1590 1589 1587 1586 1585 1584 1584 1583 1582
1613 1614 1615 1616 1617 1618 1619 1620 1620 1621 1622 1623 1624 1625 1625 1626 1627 1627 1628 1628 1628 1629 1629 1629 1628 1628 1628 1628 1628 1627 1627 1627 1626 1626 1626 1626 1626 1626 1626 1626 1626 1626 1625 1625 1625 1625 1625 1624 1624 1623 1622 1622 1621 1620 1619 1618 1617 1615 1614 1613 1612 1610 1609 1607 1605 1604 1603 1601 1600 1599 1598 1596 1595 1594 1592 1592 1591 1589 1588 1587 1586 1585 1584 1583 1583
1613 1614 1615 1616 1617 1618 1619 1620 1620 1621 1622 1623 1624 1625 1626 1626 1627 1628 1628 1629 1629 1629 1629 1629 1629 1629 1629 1629 1629 1629 1629 1628 1627 1627 1626 1626 1626 1627 1627 1627 1627 1627 1626 1626 1626 1626 1625 1625 1624 1624 1623 1622 1622 1621 1619 1619 1618 1616 1615 1614 1613 1612 1610 1608 1607 1605 1604 1603 1601 1600 1599 1598 1596 1595 1594 1592 1591 1590 1589 1588 1587 1586 1585 1584 1583
1613 1614 1615 1616 1617 1618 1619 1619 1620 1621 1622 1623 1624 1625 1626 1627 1627 1628 1628 1629 1629 1629 1630 1630 1629 1630 1630 1630 1630 1630 1629 1629 1628 1628 1627 1627 1627 1627 1627 1627 1627 1628 1627 1627 1627 1626 1626 1626 1625 1624 1624 1623 1622 1621 1620 1619 1619 1618 1616 1615 1614 1613 1612 1610 1608 1607 1605 1604 1603 1601 1600 1599 1598 1596 1595 1593 1592 1591 1590 1589 1588 1587 1586 1585 1584
1613 1614 1615 1615 1616 1617 1619 1619 1620 1621 1622 1623 1624 1625 1626 1627 1627 1628 1628 1629 1629 1630 1630 1630 1630 1630 1630 1630 1630 1630 1630 1630 1630 1629 1629 1628 1628 1628 1628 1628 1628 1628 1628 1628 1627 1627 1627 1626 1626 1625 1625 1624 1623 1622 1621 1620 1620 1619 1617 1616 1615 1614 1613 1611 1610 1608 1607 1605 1604 1602 1601 1600 1599 1598 1596 1595 1593 1592 1591 1590 1589 1588 1587 1586 1585
1612 1613 1614 1615 1616 1617 1618 1619 1620 1621 1622 1623 1624 1625 1626 1626 1627 1628 1628 1629 1629 1630 1630 1630 1630 1630 1631 1631 1631 1631 1631 1631 1630 1630 1630 1629 1629 1628 1628 1628 1629 1629 1629 1628 1628 1628 1628 1627 1627 1626 1625 1624 1623 1622 1622 1621 1620 1619 1618 1617 1616 1615 1614 1613 1611 1609 1608 1606 1605 1604 1602 1601 1600 1599 1598 1596 1595 1593 1592 1591 1590 1589 1588 1587 1586
1612 1613 1614 1615 1616 1617 1618 1619 1620 1621 1622 1622 1623 1624 1625 1626 1627 1627 1628 1629 1629 1629 1630 1630 1630 1630 1631 1631 1631 1631 1631 1631 1631 1631 1630 1630 1630 1629 1629 1629 1629 1629 1629 1629 1629 1628 1628 1628 1627 1627 1626 1625 1624 1623 1622 1622 1621 1620 1619 1618 1617 1616 1615 1614 1613 1611 1609 1608 1606 1605 1603 1602 1601 1600 1599 1598 1596 1595 1593 1592 1591 1590 1589 1588 1587
1611 1612 1613 1614 1615 1616 1617 1618 1619 1620 1621 1622 1623 1624 1625 1626 1626 1627 1628 1628 1629 1629 1630 1630 1630 1631 1631 1631 1631 1632 1631 1631 1631 1631 1631 1631 1630 1630 1630 1629 1629 1629 1629 1629 1629 1629 1628 1628 1628 1627 1626 1626 1625 1624 1623 1622 1622 1621 1620 1619 1618 1617 1616 1615 1614 1612 1611 1609 1607 1606 1605 1603 1602 1601 1600 1599 1597 1596 1594 1593 1592 1590 1589 1588 1587
1611 1612 1613 1614 1615 1616 1617 1618 1619 1620 1620 1621 1623 1623 1624 1625 1626 1626 1627 1628 1628 1629 1629 1630 1630 1630 1631 1631 1631 1632 1632 1632 1631 1631 1631 1631 1630 1630 1630 1630 1630 1630 1630 1629 1629 1629 1628 1628 1628 1627 1627 1626 1625 1625 1624 1623 1622 1621 1620 1619 1618 1617 1617 1616 1615 1613 1612 1610 1609 1607 1606 1604 1603 1602 1600 1599 1598 1597 1595 1594 1593 1591 1590 1589 1588
1610 1611 1612 1613 1614 1615 1616 1617 1618 1619 1620 1621 1622 1623 1624 1625 1625 1626 1626 1627 1627 1628 1629 1629 1630 1630 1630 1631 1631 1631 1632 1632 1631 1631 1631 1631 1631 1630 1630 1630 1630 1630 1630 1629 1629 1629 1629 1628 1628 1627 1627 1626 1626 1625 1624 1624 1623 1622 1621 1620 1619 1618 1617 1616 1615 1614 1613 1611 1610 1608 1607 1605 1604 1602 1601 1600 1599 1598 1596 1595 1593 1592 1591 1590 1588
1611 1611 1612 1613 1614 1615 1616 1617 1618 1619 1619 1620 1621 1622 1623 1624 1624 1625 1626 1626 1627 1627 1628 1628 1629 1630 1630 1630 1631 1631 1631 1631 1632 1631 1631 1631 1630 1630 1630 1630 1631 1630 1630 1629 1629 1629 1628 1628 1627 1627 1627 1626 1626 1625 1625 1624 1623 1622 1621 1620 1619 1619 1618 1617 1615 1614 1613 1612 1610 1609 1607 1606 1604 1603 1602 1601 1600 1598 1597 1596 1594 1593 1591 1590 1589
1611 1611 1612 1612 1613 1614 1615 1616 1617 1618 1619 1620 1621 1621 1622 1623 1624 1624 1625 1626 1626 1627 1627 1628 1628 1629 1629 1630 1630 1631 1631 1631 1631 1631 1631 1631 1630 1630 1630 1630 1630 1630 1630 1629 1629 1628 1628 1628 1627 1627 1626 1626 1625 1625 1625 1624 1623 1622 1621 1621 1620 1619 1618 1617 1616 1614 1613 1612 1611 1609 1608 1606 1605 1604 1602 1601 1600 1599 1598 1596 1595 1593 1592 1591 1589
1610 1611 1611 1612 1613 1614 1615 1616 1617 1617 1618 1619 1620 1621 1621 1622 1623 1624 1624 1625 1625 1626 1626 1627 1627 1628 1628 1629 1629 1630 1630 1631 1631 1631 1631 1631 1630 1630 1630 1630 1630 1629 1629 1629 1629 1628 1628 1627 1627 1626 1626 1625 1625 1625 1624 1624 1623 1622 1621 1621 1620 1619 1618 1617 1616 1615 1613 1612 1611 1610 1608 1607 1606 1604 1603 1601 1600 1599 1598 1597 1595 1594 1593 1591 1590
1610 1610 1611 1611 1612 1613 1614 1615 1616 1617 1617 1618 1619 1620 1621 1621 1622 1623 1623 1624 1624 1625 1625 1626 1626 1627 1627 1628 1628 1629 1629 1630 1630 1630 1630 1630 1630 1630 1630 1629 1629 1629 1629 1629 1628 1628 1628 1627 1627 1626 1625 1625 1625 1624 1624 1623 1623 1622 1621 1620 1620 1619 1618 1617 1616 1615 1613 1612 1611 1610 1609 1607 1606 1605 1603 1602 1601 1599 1598 1597 1596 1595 1593 1592 1590
1609 1610 1610 1611 1611 1612 1613 1614 1615 1616 1617 1617 1618 1619 1620 1620 1621 1622 1622 1623 1623 1624 1624 1625 1625 1626 1626 1626 1627 1628 1628 1629 1629 1630 1630 1630 1630 1630 1629 1629 1629 1629 1628 1628 1628 1627 1627 1627 1626 1625 1625 1625 1624 1624 1623 1623 1622 1622 1621 1620 1619 1618 1617 1616 1615 1614 1613 1612 1611 1610 1609 1608 1606 1605 1604 1602 1601 1600 1599 1597 1596 1595 1594 1593 1591
1608 1609 1610 1610 1611 1612 1613 1614 1614 1615 1616 1617 1618 1618 1619 1620 1620 1621 1621 1622 1623 1623 1624 1624 1624 1625 1625 1625 1626 1626 1627 1628 1628 1629 1629 1629 1629 1629 1629 1629 1628 1628 1627 1627 1627 1626 1626 1626 1625 1625 1624 1624 1624 1623 1623 1622 1622 1621 1620 1619 1618 1617 1617 1616 1615 1614 1613 1612 1611 1610 1609 1608 1606 1605 1604 1603 1601 1600 1599 1598 1596 1595 1594 1593 1592
1607 1608 1609 1609 1610 1611 1612 1613 1614 1614 1615 1616 1617 1618 1618 1619 1620 1620 1621 1621 1622 1622 1623 1623 1624 1624 1624 1625 1625 1625 1626 1627 1627 1627 1628 1628 1628 1628 1628 1628 1628 1627 1627 1626 1626 1625 1625 1625 1624 1624 1623 1623 1623 1622 1622 1622 1621 1620 1619 1618 1617 1616 1616 1615 1614 1613 1612 1611 1610 1609 1608 1607 1606 1605 1604 1603 1602 1600 1599 1598 1596 1595 1594 1593 1592
1606 1607 1608 1608 1609 1610 1611 1612 1613 1614 1615 1615 1616 1617 1618 1619 1619 1620 1620 1621 1621 1622 1622 1623 1623 1623 1624 1624 1624 1624 1625 1625 1626 1626 1626 1627 1627 1627 1627 1627 1627 1626 1626 1625 1624 1624 1624 1624 1623 1623 1623 1622 1622 1621 1621 1620 1620 1619 1618 1617 1616 1615 1614 1614 1613 1612 1611 1610 1610 1609 1608 1607 1606 1605 1604 1603 1601 1600 1599 1598 1596 1595 1594 1593 1592
1605 1605 1606 1607 1608 1609 1610 1611 1612 1613 1614 1614 1615 1616 1617 1618 1618 1619 1620 1620 1620 1621 1621 1622 1622 1622 1623 1623 1624 1624 1624 1624 1624 1625 1625 1625 1625 1625 1625 1625 1625 1625 1624 1624 1623 1622 1622 1622 1622 1622 1622 1621 1620 1620 1619 1619 1618 1617 1617 1616 1615 1614 1613 1612 1612 1611 1610 1609 1609 1608 1607 1606 1605 1604 1603 1602 1601 1600 1599 1597 1596 1595 1594 1592 1591
1603 1604 1605 1606 1607 1608 1609 1610 1611 1612 1613 1613 1614 1615 1615 1616 1617 1618 1619 1619 1619 1620 1620 1621 1621 1621 1622 1622 1622 1623 1623 1623 1623 1623 1624 1624 1624 1624 1624 1624 1624 1623 1623 1623 1622 1621 1621 1620 1620 1620 1620 1620 1619 1619 1618 1617 1616 1616 1615 1614 1613 1613 1612 1611 1610 1610 1609 1608 1608 1607 1606 1605 1605 1604 1603 1601 1600 1599 1598 1597 1596 1594 1593 1592 1591
1602 1603 1604 1604 1606 1606 1608 1609 1610 1611 1612 1612 1613 1613 1614 1615 1616 1617 1617 1618 1618 1618 1619 1619 1620 1620 1620 1620 1621 1621 1621 1622 1622 1622 1622 1622 1622 1622 1622 1623 1622 1622 1622 1621 1621 1620 1620 1619 1619 1619 1618 1618 1617 1617 1616 1616 1615 1614 1613 1612 1612 1611 1611 1610 1609 1608 1607 1607 1606 1606 1605 1604 1603 1603 1602 1600 1599 1598 1597 1596 1595 1594 1593 1591 1590
1600 1601 1602 1603 1604 1605 1606 1607 1608 1609 1610 1611 1612 1612 1613 1614 1614 1615 1616 1616 1617 1617 1618 1618 1618 1619 1619 1619 1619 1620 1620 1620 1620 1621 1621 1621 1621 1621 1621 1621 1621 1621 1621 1620 1620 1619 1618 1618 1617 1617 1617 1616 1616 1615 1615 1614 1613 1613 1612 1611 1611 1610 1609 1609 1608 1607 1606 1605 1605 1604 1604 1603 1602 1601 1600 1599 1598 1597 1596 1595 1594 1593 1592 1591 1590
1599 1600 1601 1602 1603 1604 1605 1606 1607 1608 1609 1610 1610 1611 1612 1612 1613 1614 1614 1615 1615 1616 1616 1617 1617 1618 1618 1618 1618 1618 1618 1619 1619 1619 1620 1620 1620 1620 1620 1620 1620 1620 1620 1619 1619 1618 1617 1617 1616 1616 1615 1615 1614 1614 1613 1613 1612 1611 1610 1610 1609 1609 1608 1607 1606 1606 1605 1604 1603 1603 1602 1601 1600 1599 1599 1598 1597 1596 1595 1594 1593 1592 1591 1590 1588
1598 1599 1600 1601 1602 1603 1604 1604 1605 1606 1607 1608 1609 1610 1610 1611 1612 1612 1613 1614 1614 1615 1615 1616 1616 1617 1617 1617 1617 1617 1617 1617 1618 1618 1618 1618 1618 1618 1619 1619 1619 1619 1619 1618 1618 1617 1617 1616 1615 1615 1614 1613 1613 1612 1612 1611 1610 1610 1609 1608 1607 1607 1606 1605 1605 1604 1603 1602 1601 1601 1600 1599 1598 1597 1596 1596 1595 1594 1593 1592 1591 1590 1589 1588 1587
1596 1597 1598 1600 1601 1602 1603 1603 1604 1605 1606 1606 1607 1608 1609 1609 1610 1611 1611 1612 1613 1614 1614 1615 1615 1615 1616 1616 1616 1616 1617 1617 1617 1617 1617 1617 1617 1617 1617 1617 1617 1617 1617 1617 1617 1617 1616 1616 1615 1614 1613 1612 1612 1611 1611 1610 1609 1609 1608 1607 1606 1605 1605 1604 1603 1602 1601 1600 1600 1599 1598 1597 1596 1595 1594 1593 1593 1592 1591 1590 1589 1588 1587 1586 1585
1596 1596 1597 1599 1600 1601 1602 1602 1603 1603 1604 1605 1606 1606 1607 1608 1608 1609 1610 1611 1612 1612 1613 1613 1613 1614 1614 1614 1615 1615 1615 1615 1616 1616 1615 1616 1615 1615 1616 1616 1616 1616 1616 1616 1616 1616 1615 1615 1614 1613 1612 1611 1611 1610 1610 1609 1609 1608 1607 1606 1605 1604 1603 1602 1601 1601 1600 1598 1597 1597 1596 1595 1594 1593 1592 1591 1591 1590 1589 1588 1587 1586 1585 1584 1583
1595 1596 1597 1597 1598 1599 1600 1601 1602 1602 1602 1603 1604 1605 1606 1606 1607 1608 1608 1609 1610 1610 1611 1611 1612 1612 1612 1613 1613 1613 1613 1614 1614 1614 1614 1614 1614 1614 1614 1614 1615 1614 1614 1614 1614 1614 1614 1613 1613 1612 1611 1610 1610 1610 1608 1608 1607 1606 1605 1604 1603 1602 1601 1600 1599 1599 1598 1597 1595 1594 1593 1593 1592 1590 1589 1589 1588 1587 1586 1585 1584 1583 1582 1581 1580
1594 1595 1596 1596 1597 1598 1599 1600 1600 1601 1601 1602 1602 1603 1604 1604 1605 1606 1606 1607 1607 1608 1609 1609 1609 1610 1610 1611 1611 1611 1611 1611 1612 1612 1612 1612 1613 1613 1613 1613 1613 1613 1613 1612 1612 1612 1612 1611 1611 1611 1609 1608 1608 1608 1607 1606 1605 1605 1604 1603 1601 1600 1600 1598 1597 1596 1596 1595 1593 1591 1590 1590 1589 1588 1587 1586 1586 1585 1584 1583 1582 1581 1579 1578 1578
1593 1594 1595 1595 1596 1597 1597 1598 1598 1599 1599 1600 1601 1601 1602 1603 1603 1603 1604 1604 1605 1605 1606 1607 1607 1608 1608 1609 1609 1609 1609 1610 1610 1610 1610 1610 1610 1611 1611 1611 1611 1611 1611 1610 1610 1610 1609 1609 1608 1608 1608 1607 1606 1606 1605 1604 1603 1603 1602 1601 1600 1599 1598 1596 1595 1594 1593 1592 1590 1588 1587 1587 1587 1585 1584 1584 1583 1582 1581 1580 1579 1578 1577 1576 1575
1590 1591 1592 1593 1594 1595 1595 1596 1596 1597 1597 1598 1598 1599 1600 1600 1601 1601 1602 1602 1602 1603 1603 1604 1605 1606 1606 1607 1607 1607 1608 1608 1608 1608 1608 1608 1608 1608 1608 1608 1608 1608 1608 1608 1608 1607 1607 1606 1605 1605 1605 1605 1604 1603 1604 1603 1601 1600 1599 1598 1597 1596 1595 1594 1593 1592 1591 1590 1588 1585 1584 1585 1584 1583 1581 1582 1581 1580 1579 1578 1577 1576 1575 1574 1573
1588 1589 1589 1590 1591 1592 1593 1593 1594 1594 1595 1595 1596 1596 1597 1598 1598 1599 1599 1600 1600 1601 1601 1602 1603 1603 1604 1604 1605 1605 1606 1606 1606 1606 1606 1606 1606 1606 1606 1605 1605 1605 1605 1605 1605 1605 1604 1603 1602 1602 1602 1602 1601 1601 1602 1601 1599 1598 1597 1596 1595 1594 1592 1591 1590 1589 1589 1588 1586 1583 1580 1581 1582 1580 1578 1579 1578 1577 1577 1576 1575 1574 1573 1572 1571
1585 1586 1586 1587 1588 1588 1590 1590 1591 1592 1592 1593 1593 1594 1595 1595 1596 1596 1597 1597 1598 1598 1599 1600 1600 1601 1601 1602 1602 1602 1603 1603 1604 1604 1603 1603 1603 1603 1602 1602 1602 1602 1602 1602 1602 1602 1601 1600 1599 1599 1599 1599 1599 1598 1598 1598 1597 1596 1595 1593 1592 1591 1589 1588 1587 1586 1585 1585 1585 1581 1577 1576 1578 1577 1575 1576 1575 1574 1574 1574 1573 1572 1571 1570 1570
1582 1582 1583 1583 1584 1585 1587 1588 1588 1589 1589 1590 1590 1591 1592 1592 1593 1593 1594 1594 1595 1596 1596 1597 1597 1598 1598 1598 1599 1599 1600 1600 1601 1601 1600 1600 1600 1600 1599 1599 1599 1599 1599 1599 1600 1599 1598 1597 1596 1595 1595 1595 1595 1595 1595 1594 1594 1593 1592 1590 1589 1588 1586 1584 1583 1582 1582 1582 1582 1580 1575 1573 1574 1574 1572 1572 1572 1571 1571 1571 1571 1570 1569 1568 1567
1579 1580 1580 1580 1581 1583 1584 1584 1585 1586 1586 1586 1587 1588 1589 1589 1590 1590 1591 1592 1592 1593 1594 1594 1595 1595 1595 1595 1596 1596 1597 1597 1598 1598 1598 1597 1597 1597 1596 1596 1596 1595 1595 1596 1596 1595 1595 1594 1593 1592 1591 1591 1591 1591 1591 1591 1590 1590 1588 1586 1586 1586 1583 1581 1579 1578 1579 1578 1578 1578 1574 1570 1570 1571 1569 1568 1568 1567 1567 1568 1568 1567 1566 1566 1565
1576 1578 1578 1577 1578 1580 1581 1581 1582 1582 1582 1583 1584 1585 1586 1586 1587 1588 1589 1589 1590 1590 1591 1592 1592 1592 1593 1593 1593 1593 1593 1594 1594 1594 1594 1594 1594 1593 1593 1592 1591 1591 1591 1591 1591 1590 1590 1590 1589 1588 1588 1587 1587 1587 1587 1587 1587 1586 1584 1583 1583 1582 1580 1578 1576 1574 1574 1574 1575 1575 1572 1569 1568 1568 1566 1565 1564 1563 1564 1564 1564 1564 1563 1562 1562
1574 1575 1575 1576 1577 1578 1579 1579 1579 1579 1580 1581 1581 1582 1583 1584 1585 1586 1586 1587 1587 1588 1588 1589 1589 1590 1590 1590 1590 1590 1590 1590 1590 1591 1591 1591 1590 1590 1589 1588 1587 1587 1587 1587 1586 1586 1585 1585 1584 1584 1583 1583 1583 1582 1582 1583 1583 1582 1581 1579 1579 1578 1576 1574 1574 1572 1569 1568 1571 1572 1569 1567 1566 1565 1564 1563 1560 1559 1559 1560 1560 1560 1559 1559 1559